FDX1825 KLAX-KOAK

Flight info

Callsign FDX1825
Flight time 0h 47m
Altitude 34000
Route LADYJ4 COREZ RGOOD EMZOH4
Aircraft A306/H-SDE3FGHIRWY/LB1

Departure

Time 2026-04-21 05:07
Airport Los Angeles International Airport (KLAX)

Arrival

Time 2026-04-21 05:54
Airport San Francisco Bay Oakland International Airport (KOAK)
Time Latitude Longitude Altitude Speed Heading
2026-04-21 04:30 33.93409 -118.38704 102 ft 0 kts 174°
2026-04-21 04:57 33.93411 -118.38704 99 ft 2 kts 174°
2026-04-21 04:57 33.93427 -118.38706 101 ft 2 kts 174°
2026-04-21 04:57 33.93444 -118.38708 99 ft 2 kts 175°
2026-04-21 04:58 33.93459 -118.38713 100 ft 2 kts 138°
2026-04-21 04:58 33.93470 -118.38728 99 ft 2 kts 122°
2026-04-21 04:58 33.93477 -118.38746 100 ft 2 kts 97°
2026-04-21 04:58 33.93476 -118.38765 97 ft 2 kts 83°
2026-04-21 04:59 33.93474 -118.38785 98 ft 2 kts 82°
2026-04-21 04:59 33.93472 -118.38805 99 ft 2 kts 82°
2026-04-21 04:59 33.93470 -118.38824 99 ft 2 kts 82°
2026-04-21 04:59 33.93468 -118.38844 98 ft 2 kts 82°
2026-04-21 05:00 33.93466 -118.38863 97 ft 2 kts 83°
2026-04-21 05:00 33.93463 -118.38883 98 ft 2 kts 83°
2026-04-21 05:00 33.93463 -118.38891 98 ft 0 kts 83°
2026-04-21 05:03 33.93464 -118.38873 98 ft 6 kts 83°
2026-04-21 05:03 33.93476 -118.38814 99 ft 7 kts 56°
2026-04-21 05:04 33.93525 -118.38793 102 ft 9 kts 13°
2026-04-21 05:04 33.93562 -118.38744 101 ft 7 kts 68°
2026-04-21 05:04 33.93572 -118.38679 100 ft 9 kts 82°
2026-04-21 05:04 33.93580 -118.38598 103 ft 10 kts 84°
2026-04-21 05:05 33.93589 -118.38503 100 ft 12 kts 83°
2026-04-21 05:05 33.93599 -118.38389 101 ft 15 kts 83°
2026-04-21 05:05 33.93623 -118.38293 102 ft 10 kts 49°
2026-04-21 05:05 33.93678 -118.38278 103 ft 8 kts 352°
2026-04-21 05:06 33.93727 -118.38333 103 ft 13 kts 280°
2026-04-21 05:06 33.93713 -118.38490 102 ft 27 kts 263°
2026-04-21 05:06 33.93670 -118.38938 100 ft 86 kts 262°
2026-04-21 05:06 33.93572 -118.39887 105 ft 141 kts 263°
2026-04-21 05:07 33.93433 -118.41188 416 ft 166 kts 262°
2026-04-21 05:07 33.93282 -118.42544 1386 ft 160 kts 263°
2026-04-21 05:07 33.93144 -118.43919 1985 ft 176 kts 263°
2026-04-21 05:07 33.93018 -118.45525 2251 ft 209 kts 266°
2026-04-21 05:08 33.92934 -118.47400 2564 ft 238 kts 267°
2026-04-21 05:08 33.92851 -118.49455 3209 ft 252 kts 265°
2026-04-21 05:08 33.92702 -118.51599 3964 ft 261 kts 263°
2026-04-21 05:08 33.92526 -118.53783 4879 ft 264 kts 262°
2026-04-21 05:09 33.92343 -118.55995 5751 ft 268 kts 262°
2026-04-21 05:09 33.92157 -118.58244 6643 ft 271 kts 260°
2026-04-21 05:09 33.91966 -118.60520 7526 ft 275 kts 261°
2026-04-21 05:09 33.91802 -118.62823 8450 ft 278 kts 264°
2026-04-21 05:10 33.91759 -118.65167 9384 ft 282 kts 266°
2026-04-21 05:10 33.91750 -118.67546 10217 ft 287 kts 266°
2026-04-21 05:10 33.91742 -118.70026 10604 ft 307 kts 266°
2026-04-21 05:10 33.91731 -118.72679 10895 ft 326 kts 266°
2026-04-21 05:11 33.91720 -118.75487 11169 ft 344 kts 266°
2026-04-21 05:11 33.91708 -118.78434 11472 ft 359 kts 266°
2026-04-21 05:11 33.91696 -118.81478 11975 ft 367 kts 266°
2026-04-21 05:11 33.91728 -118.84558 12613 ft 370 kts 268°
2026-04-21 05:12 33.91818 -118.87664 13287 ft 372 kts 268°
2026-04-21 05:12 33.91914 -118.90780 13933 ft 374 kts 268°
2026-04-21 05:12 33.92010 -118.93917 14470 ft 377 kts 268°
2026-04-21 05:12 33.92104 -118.97081 15031 ft 379 kts 268°
2026-04-21 05:13 33.92316 -119.00219 15586 ft 386 kts 275°
2026-04-21 05:13 33.93152 -119.03329 16156 ft 398 kts 291°
2026-04-21 05:13 33.94539 -119.06250 16719 ft 404 kts 296°
2026-04-21 05:13 33.96043 -119.09133 17235 ft 408 kts 297°
2026-04-21 05:14 33.97565 -119.12037 17746 ft 412 kts 297°
2026-04-21 05:14 33.99096 -119.14972 18260 ft 415 kts 297°
2026-04-21 05:14 34.00804 -119.17818 18693 ft 424 kts 305°
2026-04-21 05:14 34.02959 -119.20300 19114 ft 434 kts 316°
2026-04-21 05:15 34.05405 -119.22483 19537 ft 439 kts 319°
2026-04-21 05:15 34.07906 -119.24615 19970 ft 442 kts 320°
2026-04-21 05:15 34.10427 -119.26762 20389 ft 445 kts 320°
2026-04-21 05:15 34.12959 -119.28926 20797 ft 448 kts 320°
2026-04-21 05:16 34.15506 -119.31111 21208 ft 450 kts 320°
2026-04-21 05:16 34.18062 -119.33310 21612 ft 453 kts 320°
2026-04-21 05:16 34.20634 -119.35525 22011 ft 455 kts 320°
2026-04-21 05:16 34.23219 -119.37755 22396 ft 458 kts 319°
2026-04-21 05:17 34.25819 -119.40000 22789 ft 460 kts 319°
2026-04-21 05:17 34.28431 -119.42258 23178 ft 463 kts 320°
2026-04-21 05:17 34.31059 -119.44531 23564 ft 466 kts 320°
2026-04-21 05:17 34.33696 -119.46814 23888 ft 468 kts 319°
2026-04-21 05:18 34.36345 -119.49109 24217 ft 469 kts 319°
2026-04-21 05:18 34.39009 -119.51407 24542 ft 471 kts 320°
2026-04-21 05:18 34.41832 -119.53464 24824 ft 479 kts 328°
2026-04-21 05:18 34.44872 -119.55166 25161 ft 483 kts 332°
2026-04-21 05:19 34.47980 -119.56732 25484 ft 485 kts 333°
2026-04-21 05:19 34.51121 -119.58238 25758 ft 486 kts 334°
2026-04-21 05:19 34.54231 -119.59724 26052 ft 487 kts 334°
2026-04-21 05:19 34.57389 -119.61237 26348 ft 488 kts 334°
2026-04-21 05:20 34.60559 -119.62744 26615 ft 490 kts 334°
2026-04-21 05:20 34.63780 -119.64288 26851 ft 492 kts 334°
2026-04-21 05:20 34.66920 -119.65799 27118 ft 493 kts 334°
2026-04-21 05:20 34.70111 -119.67347 27377 ft 494 kts 333°
2026-04-21 05:21 34.73309 -119.68902 27619 ft 495 kts 333°
2026-04-21 05:21 34.76512 -119.70462 27871 ft 497 kts 333°
2026-04-21 05:21 34.79722 -119.72023 28141 ft 498 kts 333°
2026-04-21 05:21 34.82946 -119.73595 28359 ft 499 kts 333°
2026-04-21 05:22 34.86161 -119.75170 28684 ft 499 kts 333°
2026-04-21 05:22 34.89376 -119.76757 29012 ft 498 kts 333°
2026-04-21 05:22 34.92579 -119.78317 29455 ft 495 kts 333°
2026-04-21 05:22 34.95767 -119.79873 29848 ft 492 kts 333°
2026-04-21 05:23 34.98941 -119.81432 30186 ft 491 kts 333°
2026-04-21 05:23 35.02109 -119.82993 30425 ft 492 kts 333°
2026-04-21 05:23 35.05281 -119.84553 30685 ft 492 kts 333°
2026-04-21 05:23 35.08574 -119.85790 30947 ft 499 kts 342°
2026-04-21 05:24 35.12035 -119.86339 31195 ft 506 kts 353°
2026-04-21 05:24 35.15554 -119.86451 31417 ft 507 kts 355°
2026-04-21 05:24 35.19090 -119.86418 31679 ft 508 kts 357°
2026-04-21 05:24 35.22629 -119.86321 31902 ft 510 kts 357°
2026-04-21 05:25 35.26176 -119.86201 32124 ft 510 kts 358°
2026-04-21 05:25 35.29725 -119.86079 32384 ft 510 kts 358°
2026-04-21 05:25 35.33270 -119.85965 32659 ft 510 kts 357°
2026-04-21 05:25 35.36819 -119.85859 32933 ft 509 kts 357°
2026-04-21 05:26 35.40360 -119.85764 33161 ft 509 kts 357°
2026-04-21 05:26 35.43904 -119.85677 33428 ft 509 kts 357°
2026-04-21 05:26 35.47443 -119.85588 33700 ft 509 kts 357°
2026-04-21 05:26 35.50929 -119.85591 33923 ft 506 kts 352°
2026-04-21 05:27 35.54390 -119.86132 33962 ft 494 kts 342°
2026-04-21 05:27 35.57622 -119.87319 33966 ft 478 kts 332°
2026-04-21 05:27 35.63368 -119.91124 33969 ft 466 kts 323°
2026-04-21 05:28 35.68913 -119.95268 33977 ft 467 kts 322°
2026-04-21 05:28 35.74464 -119.99429 33971 ft 467 kts 322°
2026-04-21 05:29 35.80012 -120.03588 33961 ft 467 kts 322°
2026-04-21 05:29 35.85565 -120.07759 33963 ft 468 kts 323°
2026-04-21 05:30 35.91121 -120.11936 33987 ft 468 kts 322°
2026-04-21 05:30 35.96706 -120.16145 33959 ft 475 kts 322°
2026-04-21 05:31 36.02403 -120.20447 33963 ft 484 kts 323°
2026-04-21 05:31 36.08172 -120.24806 33953 ft 487 kts 323°
2026-04-21 05:32 36.13954 -120.29181 33963 ft 487 kts 323°
2026-04-21 05:32 36.19731 -120.33561 33960 ft 487 kts 323°
2026-04-21 05:33 36.25517 -120.37958 33945 ft 488 kts 323°
2026-04-21 05:33 36.31307 -120.42365 33952 ft 487 kts 322°
2026-04-21 05:34 36.37076 -120.46740 33946 ft 486 kts 322°
2026-04-21 05:34 36.42836 -120.51149 33911 ft 486 kts 322°
2026-04-21 05:35 36.45691 -120.53336 33656 ft 478 kts 322°
2026-04-21 05:35 36.48500 -120.55486 33162 ft 472 kts 322°
2026-04-21 05:35 36.51295 -120.57632 32421 ft 472 kts 322°
2026-04-21 05:35 36.53992 -120.59920 31642 ft 466 kts 315°
2026-04-21 05:36 36.56468 -120.62526 30659 ft 468 kts 312°
2026-04-21 05:36 36.58901 -120.65229 29829 ft 469 kts 311°
2026-04-21 05:36 36.61338 -120.67948 29212 ft 473 kts 311°
2026-04-21 05:36 36.63813 -120.70711 28858 ft 483 kts 311°
2026-04-21 05:37 36.66342 -120.73530 28578 ft 493 kts 311°
2026-04-21 05:37 36.68895 -120.76383 28476 ft 494 kts 311°
2026-04-21 05:37 36.71464 -120.79240 28143 ft 496 kts 311°
2026-04-21 05:37 36.74033 -120.82106 27619 ft 496 kts 311°
2026-04-21 05:38 36.76610 -120.84975 27003 ft 496 kts 312°
2026-04-21 05:38 36.79189 -120.87825 26378 ft 494 kts 312°
2026-04-21 05:38 36.81755 -120.90655 25595 ft 491 kts 311°
2026-04-21 05:38 36.84300 -120.93469 24747 ft 489 kts 312°
2026-04-21 05:39 36.86848 -120.96295 23858 ft 488 kts 312°
2026-04-21 05:39 36.89381 -120.99108 22921 ft 487 kts 312°
2026-04-21 05:39 36.91908 -121.01915 22032 ft 485 kts 312°
2026-04-21 05:39 36.94411 -121.04702 21143 ft 478 kts 312°
2026-04-21 05:40 36.96882 -121.07450 20324 ft 473 kts 312°
2026-04-21 05:40 36.99296 -121.10141 19669 ft 470 kts 312°
2026-04-21 05:40 37.01723 -121.12842 19102 ft 465 kts 312°
2026-04-21 05:40 37.04125 -121.15520 18513 ft 459 kts 312°
2026-04-21 05:41 37.06506 -121.18186 18006 ft 458 kts 312°
2026-04-21 05:41 37.08864 -121.20843 17377 ft 454 kts 312°
2026-04-21 05:41 37.11206 -121.23467 16665 ft 449 kts 313°
2026-04-21 05:41 37.13514 -121.26064 15927 ft 443 kts 313°
2026-04-21 05:42 37.15773 -121.28671 15154 ft 439 kts 313°
2026-04-21 05:42 37.18002 -121.31263 14425 ft 435 kts 313°
2026-04-21 05:42 37.20206 -121.33822 13699 ft 430 kts 314°
2026-04-21 05:42 37.22397 -121.36367 12877 ft 428 kts 314°
2026-04-21 05:43 37.23835 -121.38042 12370 ft 425 kts 314°
2026-04-21 05:43 37.25992 -121.40562 11567 ft 421 kts 313°
2026-04-21 05:43 37.28125 -121.43054 10879 ft 417 kts 314°
2026-04-21 05:43 37.30239 -121.45532 10227 ft 414 kts 314°
2026-04-21 05:44 37.32342 -121.47989 9615 ft 409 kts 314°
2026-04-21 05:44 37.34406 -121.50394 9106 ft 399 kts 314°
2026-04-21 05:44 37.36384 -121.52690 8964 ft 371 kts 313°
2026-04-21 05:44 37.38203 -121.54776 8950 ft 336 kts 313°
2026-04-21 05:45 37.39865 -121.56683 8848 ft 313 kts 312°
2026-04-21 05:45 37.41438 -121.58489 8650 ft 302 kts 311°
2026-04-21 05:45 37.42970 -121.60277 8363 ft 299 kts 311°
2026-04-21 05:45 37.44391 -121.62142 8073 ft 290 kts 302°
2026-04-21 05:46 37.45576 -121.64166 7760 ft 286 kts 298°
2026-04-21 05:46 37.46717 -121.66221 7508 ft 290 kts 299°
2026-04-21 05:46 37.47924 -121.68247 7343 ft 288 kts 302°
2026-04-21 05:46 37.49122 -121.70263 7115 ft 287 kts 299°
2026-04-21 05:47 37.50262 -121.72279 6905 ft 284 kts 300°
2026-04-21 05:47 37.51452 -121.74307 6908 ft 284 kts 299°
2026-04-21 05:47 37.52598 -121.76304 6846 ft 284 kts 297°
2026-04-21 05:47 37.53358 -121.78508 6494 ft 269 kts 275°
2026-04-21 05:48 37.53659 -121.80804 6129 ft 265 kts 270°
2026-04-21 05:48 37.53890 -121.83103 5723 ft 263 kts 270°
2026-04-21 05:48 37.54124 -121.85376 5356 ft 261 kts 271°
2026-04-21 05:48 37.54366 -121.87632 5041 ft 258 kts 270°
2026-04-21 05:49 37.54601 -121.89878 4783 ft 258 kts 271°
2026-04-21 05:49 37.54883 -121.92072 4684 ft 249 kts 271°
2026-04-21 05:49 37.55119 -121.94186 4575 ft 242 kts 271°
2026-04-21 05:49 37.55355 -121.96288 4419 ft 243 kts 271°
2026-04-21 05:50 37.55602 -121.98403 4315 ft 245 kts 272°
2026-04-21 05:50 37.56162 -122.00456 4191 ft 255 kts 295°
2026-04-21 05:50 37.57231 -122.02210 4011 ft 246 kts 304°
2026-04-21 05:50 37.58341 -122.03748 3834 ft 232 kts 304°
2026-04-21 05:51 37.59396 -122.05284 3582 ft 232 kts 302°
2026-04-21 05:51 37.60424 -122.06832 3241 ft 227 kts 302°
2026-04-21 05:51 37.61441 -122.08356 2826 ft 228 kts 304°
2026-04-21 05:51 37.62454 -122.09876 2383 ft 223 kts 304°
2026-04-21 05:52 37.63444 -122.11351 2042 ft 218 kts 304°
2026-04-21 05:52 37.64402 -122.12774 1917 ft 201 kts 303°
2026-04-21 05:52 37.65256 -122.14102 1613 ft 193 kts 304°
2026-04-21 05:52 37.66118 -122.15376 1310 ft 185 kts 305°
2026-04-21 05:53 37.66904 -122.16551 1046 ft 166 kts 305°
2026-04-21 05:53 37.67608 -122.17615 829 ft 149 kts 307°
2026-04-21 05:53 37.68248 -122.18578 629 ft 139 kts 307°
2026-04-21 05:53 37.68875 -122.19521 450 ft 140 kts 309°
2026-04-21 05:54 37.69498 -122.20455 262 ft 138 kts 309°
2026-04-21 05:54 37.70108 -122.21380 84 ft 135 kts 310°
2026-04-21 05:54 37.70689 -122.22243 15 ft 117 kts 311°
2026-04-21 05:54 37.71083 -122.22822 15 ft 48 kts 310°
2026-04-21 05:55 37.71264 -122.23050 16 ft 35 kts 329°
2026-04-21 05:55 37.71457 -122.23143 15 ft 17 kts 358°
2026-04-21 05:55 37.71492 -122.23075 15 ft 6 kts 111°
2026-04-21 05:55 37.71459 -122.23015 15 ft 10 kts 128°
2026-04-21 05:56 37.71417 -122.22950 15 ft 10 kts 130°
2026-04-21 05:56 37.71364 -122.22872 15 ft 17 kts 130°
2026-04-21 05:56 37.71263 -122.22717 15 ft 29 kts 129°
2026-04-21 05:56 37.71127 -122.22508 15 ft 30 kts 129°
2026-04-21 05:57 37.71109 -122.22439 15 ft 6 kts 68°
2026-04-21 05:57 37.71159 -122.22373 15 ft 15 kts 37°
2026-04-21 05:57 37.71262 -122.22266 16 ft 23 kts 40°
2026-04-21 05:57 37.71375 -122.22121 15 ft 21 kts 50°
2026-04-21 05:58 37.71462 -122.22005 15 ft 15 kts 45°
2026-04-21 05:58 37.71544 -122.22013 15 ft 15 kts 312°
2026-04-21 05:58 37.71619 -122.22036 15 ft 10 kts 30°
2026-04-21 05:58 37.71657 -122.21989 15 ft 6 kts 45°
2026-04-21 05:59 37.71686 -122.21952 15 ft 6 kts 45°
2026-04-21 05:59 37.71698 -122.21941 15 ft 1 kts 26°
2026-04-21 05:59 37.71708 -122.21946 15 ft 3 kts 338°
2026-04-21 06:00 37.71745 -122.21985 15 ft 1 kts 319°
2026-04-21 06:00 37.71751 -122.21993 15 ft 0 kts 319°